International Virtual Aviation Organisation

Russian Federation and Kazakhstan MCD

 

Карточка аэропорта UARR

Внимание!
Информация на этой странице в стадии наполнения.
Если вы не увидели какой-то информации, или заметили неточность - пожалуйста сообщите нам!
Спасибо!
Команда RU-STAFF
Название аэропортаУральск
Название аэропорта (англ.)Uralsk
Превышение128 ft. (39 m.)
Координаты51°9.0479999999998', 51°32.586'
Высота перехода1770
Эшелон переходаFL40
Коды ответчика3470-3473, 3570-3577
Зона ОрВДАктобе РПИ (UATT)
Данные METARUARR 242300Z 22006MPS 7000 -SHSNRA BR BKN003 OVC020CB 00/00 Q1003 R04/290350 TEMPO 1000 FZRA BR OVC002 RMK QBB110 QFE749/0999
Проноз погоды (TAF)NODATA
NOTAMshow/hide NOTAM
AWOS   TABLE

Информация о ВПП

ВПП Длина ВПП (м.) Покрытие Курс ВПП Частота ILS
042799Бетон52111.3
222799Бетон232109.7

Диспетчерские позиции




Спутниковое изображение